AAL202 KJFK-KPIT

Flight info

Callsign AAL202
Flight time N/A
Altitude 24000
Route RBV Q430 COPES Q75 MXE CLIPR3
Aircraft A319/M-SDE3FGHIRWY/LB1

Departure

Time N/A
Airport John F. Kennedy International Airport (KJFK)

Arrival

Time 2026-05-04 23:32
Airport Pittsburgh International Airport (KPIT)
Time Latitude Longitude Altitude Speed Heading
2026-05-04 23:16 40.50602 -79.25608 23856 ft 411 kts 160°
2026-05-04 23:16 40.47961 -79.24181 23855 ft 411 kts 160°
2026-05-04 23:16 40.45314 -79.22752 23856 ft 411 kts 160°
2026-05-04 23:16 40.42673 -79.21328 23868 ft 411 kts 160°
2026-05-04 23:17 40.39973 -79.20161 23849 ft 406 kts 173°
2026-05-04 23:17 40.37181 -79.20006 23867 ft 400 kts 189°
2026-05-04 23:17 40.34514 -79.20879 23866 ft 393 kts 206°
2026-05-04 23:17 40.32184 -79.22680 23866 ft 387 kts 222°
2026-05-04 23:18 40.30360 -79.25218 23872 ft 382 kts 238°
2026-05-04 23:18 40.29159 -79.28243 23870 ft 378 kts 252°
2026-05-04 23:18 40.28620 -79.31589 23869 ft 376 kts 267°
2026-05-04 23:18 40.28788 -79.34986 23867 ft 375 kts 282°
2026-05-04 23:19 40.29516 -79.38270 23869 ft 375 kts 287°
2026-05-04 23:19 40.30291 -79.41531 23869 ft 375 kts 287°
2026-05-04 23:19 40.31062 -79.44805 23770 ft 377 kts 287°
2026-05-04 23:19 40.31827 -79.48071 21695 ft 386 kts 286°
2026-05-04 23:20 40.32653 -79.51654 18948 ft 430 kts 285°
2026-05-04 23:20 40.33497 -79.55381 17780 ft 421 kts 285°
2026-05-04 23:20 40.34313 -79.59012 16606 ft 410 kts 285°
2026-05-04 23:20 40.35089 -79.62503 15540 ft 399 kts 285°
2026-05-04 23:21 40.35847 -79.65941 14537 ft 388 kts 285°
2026-05-04 23:21 40.36580 -79.69300 13573 ft 377 kts 285°
2026-05-04 23:21 40.37287 -79.72568 12557 ft 368 kts 284°
2026-05-04 23:21 40.37976 -79.75755 11561 ft 358 kts 286°
2026-05-04 23:22 40.39091 -79.78636 10558 ft 355 kts 305°
2026-05-04 23:22 40.40952 -79.80656 10209 ft 342 kts 327°
2026-05-04 23:22 40.43171 -79.81502 10077 ft 329 kts 347°
2026-05-04 23:22 40.45380 -79.81646 9568 ft 318 kts 351°
2026-05-04 23:23 40.47509 -79.81714 9489 ft 295 kts 351°
2026-05-04 23:23 40.49542 -79.81763 8982 ft 287 kts 351°
2026-05-04 23:23 40.51519 -79.81811 8469 ft 282 kts 351°
2026-05-04 23:23 40.53468 -79.81860 7885 ft 279 kts 351°
2026-05-04 23:24 40.55409 -79.81926 7260 ft 278 kts 351°
2026-05-04 23:24 40.57340 -79.82015 6677 ft 277 kts 351°
2026-05-04 23:24 40.59264 -79.82131 6069 ft 275 kts 348°
2026-05-04 23:24 40.61026 -79.82839 5401 ft 260 kts 320°
2026-05-04 23:25 40.62173 -79.84524 5225 ft 246 kts 289°
2026-05-04 23:25 40.62477 -79.86657 5078 ft 241 kts 261°
2026-05-04 23:25 40.61892 -79.88669 4923 ft 233 kts 231°
2026-05-04 23:25 40.60768 -79.90107 4765 ft 222 kts 221°
2026-05-04 23:26 40.59585 -79.91399 4613 ft 221 kts 221°
2026-05-04 23:26 40.58394 -79.92682 4502 ft 221 kts 220°
2026-05-04 23:26 40.57224 -79.93947 4353 ft 213 kts 220°
2026-05-04 23:26 40.56102 -79.95166 4203 ft 205 kts 221°
2026-05-04 23:27 40.55013 -79.96348 4087 ft 200 kts 220°
2026-05-04 23:27 40.53948 -79.97516 4011 ft 199 kts 221°
2026-05-04 23:27 40.52895 -79.98656 4014 ft 199 kts 221°
2026-05-04 23:27 40.51834 -79.99792 4007 ft 192 kts 220°
2026-05-04 23:28 40.50935 -80.01020 3995 ft 186 kts 240°
2026-05-04 23:28 40.50414 -80.02570 4018 ft 182 kts 242°
2026-05-04 23:28 40.49878 -80.04060 3991 ft 181 kts 248°
2026-05-04 23:28 40.49687 -80.05704 3832 ft 185 kts 264°
2026-05-04 23:29 40.49707 -80.07392 3564 ft 185 kts 267°
2026-05-04 23:29 40.49750 -80.09063 3315 ft 179 kts 267°
2026-05-04 23:29 40.49794 -80.10639 3094 ft 166 kts 267°
2026-05-04 23:29 40.49834 -80.12076 2882 ft 148 kts 266°
2026-05-04 23:30 40.49869 -80.13327 2703 ft 135 kts 266°
2026-05-04 23:30 40.49901 -80.14542 2517 ft 131 kts 269°
2026-05-04 23:30 40.49932 -80.15738 2350 ft 131 kts 267°
2026-05-04 23:30 40.49964 -80.16944 2189 ft 134 kts 266°
2026-05-04 23:31 40.49996 -80.18175 2007 ft 136 kts 266°
2026-05-04 23:31 40.50030 -80.19397 1810 ft 131 kts 264°
2026-05-04 23:31 40.50062 -80.20595 1653 ft 133 kts 265°
2026-05-04 23:31 40.50096 -80.21849 1441 ft 139 kts 267°
2026-05-04 23:32 40.50130 -80.23095 1244 ft 138 kts 267°
2026-05-04 23:32 40.50165 -80.24330 1156 ft 125 kts 266°
2026-05-04 23:32 40.50184 -80.25265 1148 ft 78 kts 272°
2026-05-04 23:32 40.50197 -80.25753 1150 ft 31 kts 272°
2026-05-04 23:33 40.50166 -80.25889 1151 ft 13 kts 195°
2026-05-04 23:33 40.50106 -80.25826 1153 ft 12 kts 114°
2026-05-04 23:33 40.50088 -80.25713 1153 ft 14 kts 91°
2026-05-04 23:33 40.50086 -80.25579 1153 ft 16 kts 91°
2026-05-04 23:34 40.50083 -80.25428 1153 ft 17 kts 91°